Wind_Speed
43 43 45 48 51 54 56 55 54 53 51 46 43 42 41 40 39 40 40 41 42 42 41 41 40 40 40 40 39 38 38 37 37 36 36 36 36 36 36 36 36 36 36 36
42 43 44 45 48 51 54 53 51 51 51 46 45 43 41 41 40 40 40 41 41 41 41 40 40 39 39 38 38 38 37 37 36 36 36 36 35 35 36 36 36 36 36 36
42 41 44 46 45 46 50 52 52 51 48 48 47 45 42 41 41 40 41 41 41 41 41 40 40 39 38 37 37 37 37 36 36 36 36 36 36 35 36 36 36 36 36 37
44 44 43 43 42 42 44 47 51 51 50 49 49 47 45 44 42 42 42 42 42 42 42 41 40 39 38 37 37 37 36 36 36 36 36 36 36 36 36 36 36 36 36 37
42 44 43 42 41 41 42 44 47 50 51 50 50 50 48 46 46 44 43 43 43 42 42 41 40 39 38 38 37 37 37 36 36 36 36 36 36 36 36 36 36 36 36 36
40 42 43 41 41 42 42 43 45 48 50 50 50 51 47 46 46 46 45 44 44 43 43 41 40 40 39 38 37 37 36 36 36 36 36 36 36 36 35 35 35 36 36 37
37 39 42 40 40 42 44 42 44 46 47 48 48 48 46 46 46 45 45 45 45 44 43 41 41 40 39 38 37 37 37 36 36 36 36 36 35 35 35 35 36 36 36 37
35 38 37 36 37 40 42 42 43 46 47 47 46 46 47 47 46 45 44 44 44 43 42 42 41 40 39 39 38 38 37 37 36 36 35 35 35 35 35 35 36 36 36 37
35 36 35 35 36 37 40 42 43 45 46 47 47 46 45 46 46 45 44 43 43 43 42 42 41 40 39 39 38 38 38 37 36 36 35 35 35 35 35 36 36 36 37 37
37 37 36 36 36 38 40 42 43 44 45 46 46 46 46 45 45 45 44 43 43 43 42 41 41 40 39 39 38 38 38 37 36 36 35 35 35 35 35 36 36 36 37 38
36 37 38 38 38 38 39 41 42 43 44 45 45 45 44 44 44 44 43 42 42 41 41 41 40 39 38 38 38 38 37 37 36 36 35 35 35 35 36 36 36 37 38 38
35 36 38 39 39 39 39 40 41 41 43 44 44 43 42 42 42 42 41 41 41 40 40 40 39 39 38 38 38 37 37 36 35 35 35 35 35 35 36 36 36 37 38 39
33 36 37 38 40 40 41 41 41 40 41 42 43 42 42 41 42 42 41 40 40 40 39 39 38 38 37 38 38 37 36 36 35 35 35 35 35 35 35 36 37 38 38 39
31 34 36 37 39 41 42 43 42 40 40 40 40 40 40 40 40 40 40 40 39 38 38 37 37 36 36 36 36 36 36 36 35 35 35 35 35 35 35 36 37 38 38 39
31 34 36 37 38 40 41 42 43 41 40 40 40 39 39 39 39 39 39 39 38 37 36 36 35 35 36 36 35 35 35 35 35 35 35 35 35 35 36 37 38 38 39 39
29 32 35 35 36 37 39 40 41 41 41 40 40 39 38 37 37 38 37 37 37 36 35 35 35 35 35 35 35 34 34 34 34 34 35 35 36 36 37 37 38 38 38 39
28 30 31 31 33 34 35 37 38 39 41 41 40 39 37 35 35 35 34 35 35 35 35 35 35 34 34 34 34 34 34 34 34 35 35 36 36 36 37 37 37 38 39 39
26 28 29 30 31 32 32 35 37 39 40 41 40 39 37 35 34 33 34 34 34 35 34 34 34 34 34 34 34 34 34 34 34 35 35 35 36 36 36 37 38 38 39 40
26 27 29 29 29 30 31 33 35 36 38 40 41 40 38 36 35 34 33 33 34 34 34 33 33 34 34 34 34 33 34 34 34 35 35 35 35 36 36 37 38 39 40 40
25 26 27 28 29 31 31 31 32 34 36 39 39 39 39 36 35 34 33 33 33 34 34 33 33 33 33 33 33 33 34 34 35 35 34 35 35 36 37 37 38 39 40 40
26 27 27 28 29 30 30 30 30 31 34 37 37 38 38 37 35 34 33 33 32 32 33 33 33 32 32 32 32 33 33 34 34 34 34 35 36 36 37 37 38 38 39 40
25 26 26 26 28 29 29 29 29 30 32 33 34 35 35 35 34 33 33 32 32 32 32 31 31 31 31 31 31 32 32 33 34 34 35 35 36 36 37 37 38 39 40 40
25 24 24 24 25 26 28 28 28 29 29 29 30 32 34 34 33 32 31 31 30 31 31 30 30 30 30 31 31 32 32 33 34 34 34 35 35 36 37 37 38 39 39 39
24 25 25 25 25 26 27 27 27 27 28 28 30 31 32 33 33 31 30 29 29 29 29 30 30 30 30 30 31 32 32 32 33 33 34 35 35 36 36 37 37 37 38 38
23 24 25 26 26 26 26 25 25 26 27 27 28 29 30 31 31 31 30 30 29 30 30 29 29 29 30 30 30 31 31 31 32 33 33 34 34 34 35 35 36 37 37 38
21 23 24 25 25 25 25 25 26 26 27 27 27 27 28 29 30 30 30 30 29 29 29 29 29 29 29 29 29 30 30 31 32 32 33 34 34 35 35 36 36 37 38 39
21 22 23 24 24 24 25 25 25 25 25 26 26 26 26 26 27 28 28 27 27 27 28 28 28 28 28 29 30 30 31 32 33 34 34 35 35 35 36 36 37 38 40 41
Wind_Direction
220 219 219 218 220 223 224 223 225 224 225 224 227 228 228 226 225 225 227 228 229 231 233 236 238 240 242 244 247 249 252 255 257 260 262 265 267 270 273 275 277 278 280 282
223 221 221 221 220 221 222 224 224 223 222 221 224 225 227 227 225 224 225 228 229 230 232 234 237 239 242 244 246 249 252 255 258 260 263 265 267 270 272 274 276 278 280 283
224 222 224 225 220 220 221 222 223 222 219 221 223 224 224 225 225 225 224 226 228 230 231 232 235 238 240 243 245 248 251 254 257 260 263 265 267 269 271 274 276 278 281 283
227 225 227 224 222 222 220 220 222 222 221 221 222 223 224 223 224 225 225 226 227 229 231 232 235 237 239 242 245 247 250 254 257 259 262 265 268 269 271 274 276 278 281 283
230 231 229 224 222 221 221 219 219 221 222 221 221 223 223 223 223 224 226 228 229 229 231 234 235 237 240 243 245 247 251 254 257 260 262 265 267 270 272 274 276 278 280 283
231 232 230 225 223 222 222 220 217 219 220 221 222 223 223 224 224 224 226 229 230 231 232 234 236 238 241 243 245 248 251 254 257 261 263 265 267 269 272 274 276 279 281 283
229 231 229 226 226 224 225 220 219 220 220 221 222 223 222 224 224 225 226 229 230 231 233 235 236 238 241 243 246 248 251 254 258 261 263 265 267 269 272 275 277 280 282 284
227 227 225 225 225 225 223 221 222 223 223 223 223 222 223 224 225 226 226 228 230 232 232 234 237 239 241 244 246 249 251 255 258 260 262 264 266 269 272 275 278 280 283 285
226 224 223 223 223 222 221 220 221 222 223 224 224 222 222 224 225 227 227 228 229 231 233 235 237 239 241 244 247 249 252 255 257 260 262 264 267 270 272 275 278 281 283 285
226 222 222 221 220 220 220 219 220 221 222 223 225 225 225 225 227 229 229 229 229 231 233 235 237 239 241 244 247 249 252 255 257 260 262 264 267 270 273 276 278 281 284 286
226 223 222 221 220 220 220 220 221 221 222 223 224 226 228 228 229 229 230 230 230 231 233 235 237 239 242 244 247 249 252 254 256 259 261 265 268 271 274 277 280 282 285 287
224 224 224 219 219 220 219 219 220 221 221 222 224 226 228 229 229 229 229 229 230 232 233 235 237 240 242 244 246 249 251 253 256 259 262 265 268 272 275 278 280 283 285 288
226 225 224 220 219 219 219 218 219 220 221 222 224 225 226 227 227 228 228 228 229 231 232 235 238 240 242 243 245 247 249 252 255 258 262 265 269 273 276 279 282 285 286 288
227 226 224 220 220 220 219 219 220 221 221 221 221 221 222 222 224 226 227 228 229 229 230 233 236 239 240 241 243 245 248 251 255 258 262 267 270 274 278 281 283 285 287 288
225 225 222 218 218 218 219 219 219 220 219 219 218 218 219 219 221 223 224 226 226 227 229 231 233 236 238 240 242 245 248 251 255 259 263 267 271 275 278 281 283 285 286 288
224 223 221 218 216 217 218 218 217 218 218 217 216 217 218 217 217 219 221 222 224 226 228 230 232 235 237 239 242 245 249 253 257 261 265 268 272 275 278 281 283 286 288 289
222 219 217 217 217 217 218 217 217 216 216 215 215 217 219 219 218 218 221 224 224 225 227 230 232 234 236 239 242 246 250 254 258 262 265 269 273 276 279 282 284 286 288 290
221 218 216 216 216 216 216 216 216 215 215 217 217 218 220 220 220 221 222 223 224 225 228 230 232 234 238 241 244 247 251 255 259 263 266 270 273 277 280 282 285 287 289 291
222 219 216 215 215 214 215 215 214 215 216 216 216 217 218 220 221 221 222 223 225 226 229 232 234 237 240 243 246 249 252 257 260 264 267 271 274 277 280 283 286 288 291 292
223 219 215 213 213 213 213 212 213 215 217 217 216 216 218 219 221 223 224 225 226 227 230 233 236 239 242 245 247 250 254 258 262 265 268 272 275 278 281 284 287 289 291 293
222 219 216 216 215 212 210 211 213 213 213 214 215 215 217 219 221 223 225 226 227 229 231 234 236 239 242 247 250 253 256 259 263 266 270 273 276 279 282 285 287 289 291 293
220 218 217 215 213 210 209 211 213 213 212 213 215 215 216 218 220 222 223 225 228 229 231 233 236 240 244 247 250 254 258 261 265 268 272 275 277 280 282 285 287 289 292 294
214 213 210 209 208 209 208 210 213 213 212 213 214 214 215 217 218 220 222 224 227 229 231 234 238 242 245 248 252 257 260 264 267 270 273 275 277 280 283 285 288 291 293 295
210 207 206 206 205 205 206 208 209 209 211 213 213 214 215 216 218 220 222 224 227 231 235 238 242 245 248 251 254 257 261 264 268 271 273 276 278 281 284 287 290 292 294 296
205 202 202 202 203 204 205 206 207 207 209 211 212 214 215 217 220 222 225 228 231 235 238 241 244 248 251 252 254 258 261 264 267 271 274 277 280 283 286 288 290 293 295 297
198 199 199 200 202 203 204 206 206 207 208 210 212 215 217 220 223 226 229 231 234 238 242 246 249 251 252 253 256 259 262 265 268 272 275 278 281 283 286 288 291 293 295 298
199 201 200 199 201 202 203 205 207 208 210 212 214 217 219 222 225 228 231 234 238 241 245 249 251 253 255 257 260 262 265 267 270 273 276 278 281 283 286 288 291 293 296 299
Height
5515 5522 5529 5537 5545 5552 5560 5570 5579 5591 5601 5612 5618 5624 5631 5636 5642 5648 5653 5659 5664 5669 5674 5679 5683 5687 5691 5695 5698 5701 5704 5706 5708 5709 5710 5711 5711 5710 5710 5709 5708 5707 5706 5704
5507 5514 5520 5527 5535 5542 5551 5561 5571 5581 5592 5603 5607 5614 5621 5627 5633 5638 5644 5649 5654 5659 5664 5669 5673 5678 5682 5686 5689 5692 5694 5696 5698 5699 5700 5701 5701 5701 5701 5700 5699 5698 5697 5695
5500 5506 5510 5518 5528 5535 5544 5553 5563 5572 5586 5591 5597 5604 5611 5617 5622 5628 5634 5639 5644 5650 5654 5659 5663 5668 5672 5676 5679 5682 5684 5687 5688 5690 5691 5692 5692 5692 5692 5691 5690 5689 5688 5686
5493 5499 5503 5515 5521 5528 5536 5544 5553 5562 5571 5579 5587 5593 5599 5606 5612 5618 5624 5629 5634 5639 5644 5649 5654 5658 5662 5666 5669 5672 5675 5677 5679 5680 5681 5682 5682 5683 5682 5682 5681 5680 5678 5676
5485 5490 5497 5507 5514 5521 5527 5535 5544 5551 5560 5567 5574 5580 5588 5595 5602 5608 5613 5619 5624 5630 5635 5640 5645 5649 5653 5657 5660 5663 5666 5668 5669 5671 5672 5672 5673 5673 5673 5672 5672 5670 5669 5667
5478 5484 5491 5502 5508 5512 5519 5526 5535 5541 5548 5556 5562 5570 5581 5586 5592 5598 5604 5609 5615 5620 5626 5631 5636 5640 5644 5648 5651 5654 5656 5658 5660 5661 5662 5663 5663 5663 5663 5663 5662 5661 5659 5657
5470 5475 5484 5493 5498 5503 5512 5521 5526 5532 5538 5545 5552 5562 5569 5574 5581 5588 5594 5600 5605 5611 5617 5622 5626 5631 5635 5638 5642 5644 5646 5649 5650 5652 5653 5653 5654 5654 5654 5653 5652 5651 5649 5647
5463 5469 5480 5485 5489 5496 5503 5510 5516 5522 5528 5536 5544 5551 5557 5564 5571 5578 5585 5591 5596 5602 5607 5612 5617 5621 5625 5629 5632 5634 5637 5639 5641 5642 5643 5644 5644 5644 5644 5643 5642 5641 5639 5637
5456 5464 5470 5474 5479 5486 5492 5499 5505 5512 5519 5527 5534 5541 5547 5555 5562 5568 5575 5581 5587 5592 5597 5602 5607 5612 5616 5619 5622 5625 5627 5629 5631 5632 5633 5634 5634 5634 5634 5633 5632 5631 5629 5627
5447 5455 5460 5465 5470 5477 5483 5490 5496 5503 5510 5518 5525 5531 5538 5545 5552 5558 5565 5571 5576 5582 5587 5592 5597 5602 5606 5609 5612 5615 5617 5619 5621 5623 5624 5624 5625 5625 5624 5623 5622 5620 5619 5616
5439 5446 5451 5456 5462 5468 5474 5481 5487 5494 5501 5509 5515 5523 5529 5536 5543 5549 5555 5561 5567 5572 5578 5583 5587 5592 5596 5599 5602 5605 5607 5610 5611 5613 5614 5615 5615 5615 5614 5614 5612 5611 5609 5606
5432 5438 5441 5447 5453 5459 5465 5472 5479 5486 5492 5499 5506 5514 5520 5527 5533 5540 5546 5551 5557 5562 5568 5573 5578 5582 5586 5589 5593 5595 5598 5600 5602 5603 5604 5605 5605 5605 5604 5603 5602 5600 5598 5596
5423 5427 5432 5438 5444 5450 5456 5464 5470 5477 5484 5491 5498 5505 5511 5518 5524 5530 5536 5542 5547 5553 5558 5563 5568 5572 5576 5580 5583 5586 5588 5590 5592 5593 5594 5595 5595 5595 5594 5593 5592 5590 5587 5585
5414 5419 5424 5430 5435 5441 5448 5455 5461 5468 5475 5482 5489 5496 5502 5509 5515 5521 5527 5533 5538 5543 5548 5553 5558 5563 5566 5570 5573 5576 5578 5581 5582 5583 5584 5585 5585 5585 5584 5583 5582 5579 5577 5574
5405 5409 5415 5421 5427 5433 5439 5446 5453 5460 5467 5475 5481 5488 5494 5500 5506 5512 5518 5523 5529 5534 5539 5544 5549 5553 5557 5560 5564 5566 5569 5571 5572 5574 5574 5575 5575 5574 5573 5572 5571 5568 5566 5563
5397 5401 5406 5413 5419 5425 5431 5438 5445 5453 5460 5467 5474 5480 5486 5492 5498 5504 5509 5515 5520 5526 5531 5535 5540 5544 5547 5551 5554 5557 5559 5561 5562 5564 5564 5564 5564 5564 5563 5561 5559 5557 5555 5552
5389 5394 5400 5405 5411 5418 5424 5430 5437 5444 5451 5459 5465 5472 5478 5484 5490 5496 5501 5506 5512 5517 5522 5526 5531 5535 5538 5542 5545 5547 5549 5551 5552 5553 5554 5554 5554 5553 5552 5550 5548 5546 5544 5541
5383 5388 5393 5399 5404 5410 5417 5423 5429 5436 5443 5450 5457 5463 5470 5476 5482 5487 5493 5498 5503 5508 5513 5517 5522 5526 5529 5532 5535 5537 5539 5541 5542 5543 5544 5543 5543 5542 5541 5539 5537 5535 5532 5530
5377 5382 5387 5392 5398 5404 5410 5416 5422 5428 5435 5442 5449 5455 5462 5468 5473 5479 5485 5490 5495 5500 5504 5509 5513 5516 5520 5523 5525 5528 5530 5531 5532 5533 5533 5533 5532 5531 5530 5528 5526 5524 5521 5518
5371 5375 5380 5385 5391 5397 5403 5409 5415 5421 5427 5434 5441 5447 5454 5460 5465 5471 5476 5482 5486 5491 5496 5500 5504 5507 5510 5513 5515 5518 5519 5521 5521 5522 5522 5522 5521 5520 5519 5517 5515 5512 5510 5507
5365 5369 5373 5378 5384 5390 5396 5402 5408 5414 5420 5427 5433 5440 5446 5452 5458 5463 5468 5474 5478 5483 5487 5491 5495 5498 5501 5504 5506 5508 5509 5511 5511 5512 5512 5511 5510 5509 5508 5506 5504 5501 5498 5495
5359 5363 5367 5372 5378 5384 5390 5396 5402 5408 5414 5420 5426 5432 5439 5445 5450 5456 5461 5466 5470 5475 5479 5483 5486 5489 5492 5494 5496 5498 5499 5500 5501 5501 5501 5500 5499 5498 5497 5495 5492 5490 5487 5484
5354 5358 5362 5367 5373 5379 5385 5391 5396 5402 5408 5414 5420 5426 5432 5437 5443 5448 5453 5458 5462 5467 5471 5474 5477 5480 5482 5484 5486 5488 5489 5490 5490 5490 5490 5489 5488 5487 5485 5483 5481 5478 5475 5472
5350 5354 5359 5364 5369 5375 5381 5386 5391 5397 5403 5408 5414 5420 5425 5431 5436 5441 5446 5450 5455 5459 5462 5465 5468 5471 5473 5475 5476 5478 5479 5479 5479 5479 5479 5478 5477 5476 5474 5472 5470 5467 5464 5460
5347 5351 5356 5361 5367 5372 5377 5382 5387 5392 5398 5404 5409 5414 5420 5425 5430 5434 5439 5443 5447 5451 5454 5456 5459 5462 5464 5465 5467 5468 5468 5469 5469 5469 5468 5467 5466 5465 5463 5461 5458 5456 5453 5449
5344 5349 5354 5359 5364 5369 5374 5379 5384 5389 5394 5399 5404 5410 5414 5419 5424 5428 5432 5436 5439 5442 5445 5448 5450 5452 5454 5455 5457 5458 5458 5459 5459 5458 5457 5456 5455 5454 5452 5450 5447 5444 5441 5438
5342 5347 5351 5356 5361 5366 5371 5376 5381 5385 5390 5395 5400 5405 5409 5413 5417 5421 5425 5428 5432 5435 5437 5440 5441 5443 5445 5446 5447 5448 5448 5448 5448 5447 5446 5445 5444 5442 5440 5438 5435 5433 5429 5426